Regional Weather Roundup
Issued by NWS Cleveland, OH

Home | Current Version | Previous Version | Text Only | Print | Product List | Glossary Off
Versions: 1 2 3 4 5 6 7 8 9 10 11 12 13 14 15 16 17 18 19 20 21 22 23 24 25 26 27 28 29 30 31 32 33 34 35 36 37 38 39 40 41 42 43 44 45 46 47 48 49 50

000
ASUS41 KCLE 050402
RWRCLE
OHIO REGIONAL WEATHER ROUNDUP
NATIONAL WEATHER SERVICE CLEVELAND, OH
1200 AM EDT SAT SEP 05 2015

NOTE: "FAIR" INDICATES FEW OR NO CLOUDS BELOW 12,000 FEET WITH NO
SIGNIFICANT WEATHER AND/OR OBSTRUCTIONS TO VISIBILITY.

OHZ001>008-015>018-024>027-034-035-043-044-050500-
   NORTHWEST OHIO

CITY           SKY/WX    TMP DP  RH WIND       PRES   REMARKS
DEFIANCE       MOCLDY    71  67  87 S3        30.09R
FINDLAY        MOCLDY    69  66  90 W5        30.09S
TOLEDO EXPRESS CLOUDY    69  66  90 CALM      30.08R
TOLEDO EXEC    PTCLDY    70  64  81 CALM      30.09R
LIMA           PTCLDY    66  63  90 CALM      30.10S
$$

OHZ009>014-019>023-028>033-038-089-050500-
   NORTHEAST OHIO

CITY           SKY/WX    TMP DP  RH WIND       PRES   REMARKS
CLE-HOPKINS    PTCLDY    71  67  87 SE7       30.10F
CLE-LAKEFRONT  CLEAR     76  67  73 SE7       30.06F
CUY CO. ARPT   NOT AVBL
LORAIN-ELYRIA  CLEAR     66  62  87 SW7       30.10R
ASHTABULA      CLEAR     67  64  90 SE6       30.12S
AKRON-CANTON   PTCLDY    71  64  78 SW5       30.12S
WOOSTER        PTCLDY    66  65  96 CALM      30.11F FOG
MANSFIELD      PTCLDY    67  63  87 SW3       30.12R
YOUNGSTOWN     PTCLDY    67  65  93 E9        30.12F
$$

OHZ042-051>053-060>062-070>072-077>081-050500-
  SOUTHWEST OHIO

CITY           SKY/WX    TMP DP  RH WIND       PRES   REMARKS
CINC-COVINGTON CLOUDY    71  64  78 SE7       30.10S
CINC-LUNKEN    CLOUDY    69  32  25 CALM      30.10S
HAMILTON       CLOUDY    67  66  97 S3        30.11S
DAYTON         CLOUDY    66  65  96 W6        30.11R
WRIGHT-PAT AFB CLOUDY    67  66  96 W2        30.10R
DAYTON GENERAL CLOUDY    68  63  84 NW5       30.12R
WILMINGTON     CLOUDY    71  62  73 S7        30.08F
$$

OHZ036-037-039>041-045>050-054>059-063>069-073>076-082>088-050500-
  CENTRAL AND SOUTHEAST OHIO

CITY           SKY/WX    TMP DP  RH WIND       PRES   REMARKS
COLUMBUS       MOCLDY    68  65  90 SE6       30.10R
OSU AIRPORT    MOCLDY    65  64  97 CALM      30.10
BOLTON FIELD   NOT AVBL
RICKENBACK AFB MOCLDY    65  64  94 CALM      30.09R
NEWARK         CLEAR     65  63  93 CALM      30.10F
MARION         PTCLDY    65  63  93 E5        30.11S
LANCASTER      PTCLDY    67  65  93 SE6       30.11S
ZANESVILLE     CLEAR     67  64  90 CALM      30.11F
NEW PHILLY     PTCLDY    68  68 100 CALM      30.11S FOG
$$


USA.gov is the U.S. government's official web portal to all federal, state and local government web resources and services.